This is the latest recevied weather packets stored in our database for station/object DH9SB-6. If no packets are shown the sender has not sent any weather packets the latest 10 day(s).
| Time | Temp. | Humidity | Pressure | Rain* | Wind** | Luminosity | Snow |
|---|---|---|---|---|---|---|---|
| 1777911754 | 21.67° C | 42% | - | 0 mm | - | - | - |
| 1777911178 | 21.67° C | 41% | - | 0 mm | - | - | - |
| 1777910554 | 22.22° C | 39% | - | 0 mm | - | - | - |
| 1777909976 | 23.33° C | 36% | - | 0 mm | - | - | - |
| 1777909354 | 23.33° C | 35% | - | 0 mm | - | - | - |
| 1777908778 | 23.33° C | 34% | - | 0 mm | - | - | - |
| 1777908153 | 23.33° C | 36% | - | 0 mm | - | - | - |
| 1777907577 | 23.33° C | 35% | - | 0 mm | - | - | - |
| 1777906953 | 23.33° C | 34% | - | 0 mm | - | - | - |
| 1777906377 | 23.89° C | 35% | - | 0 mm | - | - | - |
| 1777905753 | 22.78° C | 37% | - | 0 mm | - | - | - |
| 1777905177 | 22.22° C | 39% | - | 0 mm | - | - | - |
| 1777904554 | 22.22° C | 42% | - | 0 mm | - | - | - |
| 1777903976 | 22.22° C | 43% | - | 0 mm | - | - | - |
| 1777903354 | 21.67° C | 42% | - | 0 mm | - | - | - |
| 1777902777 | 21.67° C | 43% | - | 0 mm | - | - | - |
| 1777902153 | 21.67° C | 43% | - | 0 mm | - | - | - |
| 1777901580 | 21.67° C | 46% | - | 0 mm | - | - | - |
| 1777900953 | 21.11° C | 45% | - | 0 mm | - | - | - |
| 1777900377 | 21.11° C | 45% | - | 0 mm | - | - | - |
| 1777899756 | 21.67° C | 44% | - | 0 mm | - | - | - |
| 1777899178 | 21.67° C | 45% | - | 0 mm | - | - | - |
| 1777898556 | 21.67° C | 45% | - | 0 mm | - | - | - |
| 1777897978 | 21.67° C | 43% | - | 0 mm | - | - | - |
| 1777897353 | 21.67° C | 43% | - | 0 mm | - | - | - |
* Rain latest hour (hover to see other rain measurements)
** Current wind speed in m/s (hover to see current wind gust speed)